Flag for U.S.A. Weather past 2 weeks in Canton, Ohio, U.S.A.

Now
56 °F

Scattered clouds.


Feels Like: 54 °F
Forecast: 44 / 66 °F
Wind: 8 mph from West

Location: Akron-Canton Regional Airport

Current Time: May 22, 2015 at 10:04:09 AM

Latest Report: May 22, 2015 at 8:51 AM


Visibility: 10 mi

Pressure: 30.10 "Hg

Humidity: 55%

Dew point: 40 °F

Location of CantonLocation

Historic Weather in Canton — Graph

°F

Canton temperature yesterday

Maximum temperature yesterday: 58 °F (at 1:51 PM)
Minimum temperature yesterday: 46 °F (at 3:51 AM)
Average temperature yesterday: 51 °F

Past Weeks' High & Low Weather Summary

 TemperatureHumidityPressure
High87 °F (May 8, 1:51 PM)93% (May 17, 2:51 AM)30.49 "Hg (May 17, 2:51 AM)
Low37 °F (May 14, 3:51 AM)30% (May 7, 4:51 PM)29.85 "Hg (May 11, 5:51 PM)
Average65 °F64%30.10 "Hg
* Reported May 7 8:51 AM — May 22 8:51 AM, Canton, Weather by CustomWeather, © 2015

Note: Actual official high and low records may vary slightly from our data, if they occured in-between our weather recording intervals... More about our weather records

Advertising

Canton weather history for previous 24 hours

 ConditionsComfort  
Time TempWeatherWind HumidityBarometerVisibility
8:51 AM
Fri, May 22
56 °FScattered clouds.8 mph55%30.10 "Hg10 mi
7:51 AM51 °FScattered clouds.9 mph61%30.10 "Hg10 mi
6:51 AM47 °FPassing clouds.7 mph71%30.08 "Hg10 mi
5:51 AM46 °FOvercast.9 mph71%30.06 "Hg10 mi
4:51 AM47 °FMostly cloudy.7 mph69%30.06 "Hg10 mi
3:51 AM46 °FClear.8 mph68%30.04 "Hg10 mi
2:51 AM46 °FClear.7 mph68%30.04 "Hg10 mi
1:51 AM46 °FClear.7 mph68%30.05 "Hg10 mi
12:51 AM47 °FClear.7 mph66%30.05 "Hg10 mi
11:51 PM
Thu, May 21
47 °FClear.7 mph64%30.04 "Hg10 mi
10:51 PM47 °FClear.6 mph64%30.04 "Hg10 mi
9:51 PM50 °FClear.5 mph61%30.03 "Hg10 mi
8:51 PM53 °FPartly sunny.5 mph56%30.01 "Hg10 mi
7:51 PM54 °FPartly sunny.5 mph57%30.00 "Hg10 mi
6:51 PM55 °FMore clouds than sun.9 mph55%30.01 "Hg10 mi
5:51 PM54 °FMostly cloudy.10 mph57%30.01 "Hg10 mi
4:51 PM56 °FMostly cloudy.10 mph49%29.99 "Hg10 mi
3:51 PM57 °FMostly cloudy.9 mph47%29.97 "Hg10 mi
2:51 PM57 °FMostly cloudy.10 mph47%29.97 "Hg10 mi
1:51 PM58 °FMostly cloudy.10 mph41%29.98 "Hg10 mi
12:51 PM57 °FMostly cloudy.6 mph47%29.99 "Hg10 mi
11:51 AM54 °FOvercast.5 mph55%30.01 "Hg10 mi
10:51 AM52 °FOvercast.No wind57%30.01 "Hg10 mi
Weather by CustomWeather, © 2015

See weather overviewHow to use our weather pages